(37) Fides
ephemeris date magn radius delta ra dec elong phase
Opposition3 Jul 202611.43.006 AU1.992 AU18h55m-27°28'175.3°1.6°
Today24 Aug 202612.32.948 AU2.262 AU18h20m-27°14'124.0°16.5°
(37) Fides - 2026-08-24
astro.vanbuitenen.nl


 
-1 year
-1 month
-1 day
Now
+1 day
+1 month
+1 year

The interactive orbit chart above shows the body's path through the solar system and its position at the given date. Green and blue lines are shown perpendicular to the ecliptic plane: Green if the path is above the ecliptic plane, blue if it is below. (Left-click and drag to rotate the view; Right-click and drag to move the view; Use scroll wheel to zoom in our out.)

The orbital elements of Fides are:

            e (Eccentricity)                : 0.1745521
            a (Semimajor axis)              : 2.6433615
            i (Inclination)                 : 3.06749
            Ω (Longitude of ascending node) : 7.22727
            ω (Argument of perihelion)      : 62.32993
            M (Mean anomaly)                : 218.71629
            Epoch                           : 2026 Jun 09

            L (Longitude of perihelion)     : 69.52340
            B (Latitude of perihelion)      : 2.71640
            P (Orbital period in years)     : 4.30            
        

The light curve chart below shows the estimated development of the minor planet's magnitude.


The all-sky chart below shows the path of the minor planet over the same period as the light curve. The current position is marked yellow.





The following chart shows the path of the minor planet in the next few days. The field of view is optimized for (~10x50) binoculars and finderscopes.




Ephemerides:
Date       Time       RA (2000)    DEC (2000)    delta   radius  elong  phase   PA    magn
2026-08-24 00:00 UT   18 20 23.3   -27 14 36     2.262    2.948  124.0   16.5    85   12.3 
2026-08-24 03:56 UT   18 20 22.4   -27 14 24     2.263    2.948  123.8   16.6    85   12.3 
2026-08-25 00:00 UT   18 20 18.8   -27 13 17     2.272    2.947  123.0   16.7    85   12.3 
2026-08-26 00:00 UT   18 20 16.0   -27 11 57     2.283    2.946  122.0   16.9    86   12.3 
2026-08-27 00:00 UT   18 20 14.7   -27 10 37     2.293    2.945  121.0   17.1    86   12.3 
2026-08-28 00:00 UT   18 20 15.1   -27 09 15     2.304    2.943  120.1   17.3    86   12.3 
2026-08-29 00:00 UT   18 20 17.0   -27 07 52     2.315    2.942  119.1   17.5    86   12.4 
2026-08-30 00:00 UT   18 20 20.6   -27 06 29     2.326    2.941  118.2   17.6    86   12.4 
2026-08-31 00:00 UT   18 20 25.7   -27 05 05     2.337    2.939  117.2   17.8    86   12.4 
2026-09-01 00:00 UT   18 20 32.3   -27 03 41     2.348    2.938  116.3   17.9    86   12.4 
2026-09-02 00:00 UT   18 20 40.6   -27 02 15     2.360    2.937  115.4   18.1    86   12.4 
2026-09-03 00:00 UT   18 20 50.3   -27 00 49     2.371    2.936  114.4   18.2    86   12.4 
2026-09-04 00:00 UT   18 21 01.6   -26 59 22     2.382    2.934  113.5   18.4    86   12.4 
2026-09-05 00:00 UT   18 21 14.5   -26 57 55     2.394    2.933  112.6   18.5    86   12.5 
2026-09-06 00:00 UT   18 21 28.8   -26 56 27     2.406    2.932  111.7   18.6    86   12.5 
2026-09-07 00:00 UT   18 21 44.7   -26 54 59     2.417    2.930  110.8   18.8    86   12.5 
2026-09-08 00:00 UT   18 22 02.0   -26 53 29     2.429    2.929  109.9   18.9    87   12.5 
2026-09-09 00:00 UT   18 22 20.9   -26 51 59     2.441    2.928  109.0   19.0    87   12.5 
2026-09-10 00:00 UT   18 22 41.2   -26 50 29     2.453    2.926  108.1   19.1    87   12.5 
2026-09-11 00:00 UT   18 23 02.9   -26 48 58     2.465    2.925  107.2   19.2    87   12.5 
2026-09-12 00:00 UT   18 23 26.2   -26 47 26     2.477    2.924  106.3   19.3    87   12.6 
2026-09-13 00:00 UT   18 23 50.8   -26 45 54     2.489    2.923  105.4   19.4    87   12.6 
2026-09-14 00:00 UT   18 24 16.9   -26 44 20     2.501    2.921  104.6   19.5    87   12.6 
2026-09-15 00:00 UT   18 24 44.4   -26 42 47     2.513    2.920  103.7   19.6    87   12.6 
2026-09-16 00:00 UT   18 25 13.3   -26 41 12     2.526    2.919  102.8   19.6    87   12.6 
2026-09-17 00:00 UT   18 25 43.5   -26 39 37     2.538    2.917  102.0   19.7    87   12.6 
2026-09-18 00:00 UT   18 26 15.1   -26 38 01     2.550    2.916  101.1   19.8    87   12.6 
2026-09-19 00:00 UT   18 26 48.1   -26 36 24     2.563    2.914  100.3   19.8    87   12.6 
2026-09-20 00:00 UT   18 27 22.3   -26 34 46     2.575    2.913   99.4   19.9    87   12.7 
2026-09-21 00:00 UT   18 27 57.9   -26 33 07     2.587    2.912   98.6   19.9    87   12.7 
2026-09-22 00:00 UT   18 28 34.7   -26 31 28     2.600    2.910   97.7   20.0    87   12.7 
2026-09-23 00:00 UT   18 29 12.8   -26 29 48     2.612    2.909   96.9   20.0    87   12.7 


    Terminology:
            
    delta:  distance between minor planet and earth in AU
    radius: distance between minor planet and sun in AU
    magn:   magnitude (brightness) estimate    
    ra:     right ascension in hours (24h = 360deg)
    dec:    declination in degrees
    elong:  elongation in degrees (angle sun-earth-minor planet)    
    phase:  phase angle in degrees (angle sun-minor planet-earth)        
    AU:     Astronomical Unit (mean distance between earth and sun: 149597870.7 km
    

Orbital elements provided by the MPC (Minor Planet Center).
Calculations by a modified version of AAPlus, a C# implementation of the AA+ project by PJ Naughter from the algorithms presented in the book "Astronomical Algorithms" by Jean Meeus.
NGC2000 dso catalog and star labels from VizieR as provided by the Strasbourg astronomical Data Center.
Tycho2 catalog from the ESO archive.